GW0353 Weather Reports


time (UTC)temp
F
wind
direction
speed
knots
gust
knots
rain 1hr
in
rain 24hr
in
rain mn
in
humidity
%
barometer
mb
20260506232557 66 0 3.5 11.3 0.00 0.00 0.00 22 1024.0
20260506232057 66 307 5.2 13.9 0.00 0.00 0.00 23 1024.0
20260506231556 67 98 6.1 13.9 0.00 0.00 0.00 22 1024.2
20260506231057 68 63 5.2 12.2 0.00 0.00 0.00 21 1023.9
20260506230558 68 52 2.6 7.8 0.00 0.00 0.00 23 1024.1
20260506230103 69 317 0.9 5.2 0.00 0.00 0.00 25 1024.0
20260506225557 69 0 0.9 5.2 0.00 0.00 0.00 25 1024.0
20260506225057 69 49 1.7 5.2 0.00 0.00 0.00 25 1024.1
20260506224556 69 70 1.7 4.3 0.00 0.00 0.00 27 1024.1
20260506224056 69 304 0.9 4.3 0.00 0.00 0.00 25 1024.0
20260506223559 70 39 1.7 4.3 0.00 0.00 0.00 25 1024.2
20260506223100 70 113 0.9 3.5 0.00 0.00 0.00 27 1024.2
20260506222559 70 0 0.9 3.5 0.00 0.00 0.00 25 1024.3
20260506222059 70 216 0.0 3.5 0.00 0.00 0.00 27 1024.4
20260506221603 70 321 0.9 5.2 0.00 0.00 0.00 28 1024.6
20260506221058 70 326 0.9 5.2 0.00 0.00 0.00 27 1024.5
20260506220558 71 1 0.9 3.5 0.00 0.00 0.00 26 1024.8
20260506220059 71 214 0.0 3.5 0.00 0.00 0.00 26 1024.8
20260506215558 71 309 0.9 3.5 0.00 0.00 0.00 27 1024.7
20260506215058 71 0 0.9 2.6 0.00 0.00 0.00 28 1024.9
20260506214602 71 224 0.0 3.5 0.00 0.00 0.00 28 1025.0
20260506214058 70 240 0.0 7.0 0.00 0.00 0.00 30 1025.0
20260506213601 68 0 0.9 7.0 0.00 0.00 0.00 29 1025.0
20260506213103 67 9 1.7 7.8 0.00 0.00 0.00 29 1024.9
20260506212559 67 83 1.7 7.8 0.00 0.00 0.00 30 1025.1
20260506212059 69 53 1.7 6.1 0.00 0.00 0.00 29 1024.9
20260506211603 68 255 2.6 6.1 0.00 0.00 0.00 30 1025.1
20260506211104 68 49 0.9 4.3 0.00 0.00 0.00 30 1024.9
20260506210559 69 70 1.7 4.3 0.00 0.00 0.00 30 1025.1
20260506205558 70 117 0.9 5.2 0.00 0.00 0.00 29 1025.1
20260506205058 69 321 0.9 5.2 0.00 0.00 0.00 30 1025.1
20260506204600 69 20 0.0 4.3 0.00 0.00 0.00 29 1025.1
20260506204058 70 313 0.9 4.3 0.00 0.00 0.00 29 1025.0
20260506203558 70 359 1.7 4.3 0.00 0.00 0.00 28 1025.1
20260506203106 70 273 0.9 5.2 0.00 0.00 0.00 29 1025.0
20260506202600 70 295 0.9 5.2 0.00 0.00 0.00 29 1025.1
20260506202058 70 307 1.7 5.2 0.00 0.00 0.00 29 1025.0
20260506201558 70 264 0.9 2.6 0.00 0.00 0.00 30 1025.0
20260506201057 69 183 0.9 2.6 0.00 0.00 0.00 29 1025.1
20260506200558 68 311 0.0 5.2 0.00 0.00 0.00 30 1025.1
20260506200111 67 26 2.6 7.0 0.00 0.00 0.00 31 1025.2
20260506195559 67 41 0.9 7.0 0.00 0.00 0.00 32 1025.2
20260506195059 67 328 2.6 7.0 0.00 0.00 0.00 33 1025.5
20260506194556 67 117 0.0 3.5 0.00 0.00 0.00 34 1025.4
20260506194059 68 282 0.9 3.5 0.00 0.00 0.00 31 1025.3
20260506193557 68 251 0.0 4.3 0.00 0.00 0.00 31 1025.5
20260506193100 68 266 0.0 4.3 0.00 0.00 0.00 30 1025.3
20260506192559 67 305 0.0 4.3 0.00 0.00 0.00 31 1025.5
20260506192058 67 0 0.9 4.3 0.00 0.00 0.00 31 1025.6
20260506191606 67 72 1.7 4.3 0.00 0.00 0.00 30 1025.6
20260506191059 68 321 1.7 3.5 0.00 0.00 0.00 30 1025.5
20260506190558 67 89 0.0 3.5 0.00 0.00 0.00 31 1025.5
20260506190059 67 287 0.9 4.3 0.00 0.00 0.00 31 1025.6
20260506185602 66 234 0.0 4.3 0.00 0.00 0.00 34 1025.5
20260506185059 66 165 1.7 6.1 0.00 0.00 0.00 33 1025.6
20260506184604 65 295 1.7 6.1 0.00 0.00 0.00 33 1025.6
20260506184059 65 287 2.6 6.1 0.00 0.00 0.00 32 1025.5
20260506183559 64 44 0.0 5.2 0.00 0.00 0.00 35 1025.7
20260506183104 64 48 2.6 5.2 0.00 0.00 0.00 34 1025.7
20260506182558 65 45 0.0 3.5 0.00 0.00 0.00 35 1025.6
20260506182058 65 10 0.9 3.5 0.00 0.00 0.00 35 1025.7
20260506181607 65 288 0.9 5.2 0.00 0.00 0.00 34 1025.5
20260506181059 65 282 0.9 5.2 0.00 0.00 0.00 34 1025.6
20260506180559 65 255 0.9 5.2 0.00 0.00 0.00 36 1025.6
20260506180059 65 322 0.0 3.5 0.00 0.00 0.00 33 1025.6
20260506175558 65 27 0.9 3.5 0.00 0.00 0.00 35 1025.6
20260506175058 65 292 0.9 3.5 0.00 0.00 0.00 35 1025.6
20260506174557 65 313 0.9 4.3 0.00 0.00 0.00 35 1025.5
20260506174058 64 0 1.7 4.3 0.00 0.00 0.00 37 1025.5
20260506173558 62 72 1.7 5.2 0.00 0.00 0.00 39 1025.5
20260506173126 62 218 2.6 5.2 0.00 0.00 0.00 38 1025.3
20260506172558 62 288 0.9 4.3 0.00 0.00 0.00 38 1025.3
20260506172058 62 298 2.6 4.3 0.00 0.00 0.00 39 1025.3
20260506171604 62 54 2.6 4.3 0.00 0.00 0.00 39 1025.1
20260506171059 63 275 0.9 2.6 0.00 0.00 0.00 39 1025.3
20260506170559 62 66 0.9 3.5 0.00 0.00 0.00 39 1025.3
20260506170109 61 27 0.9 3.5 0.00 0.00 0.00 43 1025.3
20260506165559 61 50 0.9 2.6 0.00 0.01 0.00 48 1025.3
20260506165059 59 0 0.9 2.6 0.00 0.01 0.00 46 1025.3
20260506164559 58 0 0.0 2.6 0.00 0.01 0.00 53 1025.2
20260506164058 57 0 0.9 2.6 0.00 0.01 0.00 54 1025.2
20260506163558 57 308 0.0 1.7 0.00 0.01 0.00 54 1025.1
20260506163100 56 70 0.0 3.5 0.00 0.01 0.00 57 1025.3
20260506162558 54 0 0.9 3.5 0.00 0.01 0.00 59 1025.2
20260506162058 54 49 0.9 3.5 0.00 0.01 0.00 60 1025.3
20260506161559 53 23 0.9 4.3 0.00 0.01 0.00 63 1025.2
20260506161058 52 57 2.6 4.3 0.00 0.01 0.00 62 1025.0
20260506160558 53 9 0.9 2.6 0.00 0.01 0.00 62 1025.0
20260506160059 52 305 0.0 2.6 0.00 0.01 0.00 65 1025.1
20260506155602 51 53 0.9 3.5 0.00 0.05 0.00 64 1025.1
20260506155102 50 0 0.9 3.5 0.00 0.05 0.00 64 1025.1
20260506154613 50 34 1.7 3.5 0.00 0.05 0.00 66 1025.1
20260506154058 50 0 0.0 2.6 0.00 0.05 0.00 68 1025.1
20260506153558 49 45 0.9 2.6 0.00 0.05 0.00 70 1024.9
20260506153059 48 48 0.9 2.6 0.00 0.05 0.00 72 1024.9
20260506152559 47 56 0.0 2.6 0.00 0.05 0.00 74 1025.0
20260506152101 47 88 0.0 2.6 0.00 0.05 0.00 76 1025.0
20260506151558 46 94 0.9 2.6 0.00 0.05 0.00 75 1025.1
20260506151058 46 0 0.9 1.7 0.00 0.05 0.00 79 1025.1
20260506150600 45 46 0.0 1.7 0.00 0.05 0.00 80 1025.1
20260506150057 44 62 0.9 1.7 0.00 0.05 0.00 80 1025.2
20260506145559 44 77 0.9 1.7 0.00 0.10 0.00 79 1024.9
20260506145058 44 70 0.0 1.7 0.00 0.10 0.00 82 1025.1
20260506144607 43 65 0.9 1.7 0.00 0.10 0.00 82 1024.9
20260506144101 43 55 0.9 1.7 0.00 0.10 0.00 83 1024.8
20260506143602 42 0 0.0 0.9 0.00 0.10 0.00 83 1024.8
20260506143058 42 0 0.0 0.9 0.00 0.10 0.00 82 1024.6
20260506142558 42 0 0.0 0.9 0.00 0.10 0.00 84 1024.7
20260506142058 41 0 0.0 0.9 0.00 0.10 0.00 83 1024.7
20260506141602 41 0 0.0 0.0 0.00 0.10 0.00 85 1024.6
20260506141100 40 0 0.0 0.0 0.00 0.10 0.00 86 1024.5
20260506140602 39 0 0.0 0.0 0.00 0.10 0.00 87 1024.4
20260506140058 38 0 0.0 0.9 0.00 0.10 0.00 90 1024.4
20260506135559 36 0 0.0 1.7 0.00 0.11 0.00 92 1024.3
20260506135058 34 0 0.0 1.7 0.00 0.11 0.00 92 1024.2
20260506134556 33 169 0.0 0.9 0.00 0.11 0.00 92 1024.2
20260506134102 33 0 0.0 0.0 0.00 0.11 0.00 92 1024.0
20260506133559 33 0 0.0 0.0 0.00 0.11 0.00 92 1024.0
20260506133126 33 0 0.0 0.0 0.00 0.11 0.00 92 1023.8
20260506132558 33 0 0.0 1.7 0.00 0.11 0.00 92 1023.9
20260506132058 33 0 0.0 1.7 0.00 0.11 0.00 92 1023.8
20260506131558 33 219 0.0 1.7 0.00 0.11 0.00 92 1023.8
20260506131058 33 0 0.0 0.9 0.00 0.11 0.00 92 1023.8
20260506130559 32 0 0.0 0.9 0.00 0.11 0.00 91 1023.7
20260506130122 33 0 0.0 0.0 0.00 0.11 0.00 92 1023.5
20260506125559 33 0 0.0 0.0 0.00 0.11 0.00 91 1023.6
20260506125058 33 0 0.0 0.9 0.00 0.11 0.00 91 1023.4
20260506124559 33 0 0.0 0.9 0.00 0.11 0.00 91 1023.2
20260506124058 33 0 0.0 0.9 0.00 0.11 0.00 91 1023.3
20260506123558 33 0 0.0 0.9 0.00 0.11 0.00 90 1023.1
20260506123057 34 0 0.0 0.9 0.00 0.11 0.00 91 1023.1
20260506122602 34 0 0.0 0.9 0.00 0.11 0.00 91 1023.0
20260506122058 34 0 0.0 0.9 0.00 0.11 0.00 91 1023.1
20260506121559 33 0 0.0 0.9 0.00 0.11 0.00 90 1022.9
20260506121059 34 184 0.0 0.9 0.00 0.11 0.00 89 1022.9
20260506120601 34 0 0.0 0.0 0.00 0.11 0.00 90 1022.9
20260506120058 34 0 0.0 1.7 0.00 0.11 0.00 90 1022.7
20260506115602 34 0 0.0 1.7 0.00 0.11 0.00 90 1022.7
20260506115058 34 188 0.9 1.7 0.00 0.11 0.00 89 1022.6
20260506114605 34 0 0.0 0.9 0.00 0.11 0.00 89 1022.8
20260506114058 34 184 0.0 0.9 0.00 0.11 0.00 88 1022.7
20260506113558 34 0 0.0 0.9 0.00 0.11 0.00 88 1022.6
20260506113058 35 0 0.0 0.9 0.00 0.11 0.00 89 1022.6
20260506112600 35 0 0.0 0.9 0.00 0.11 0.00 88 1022.6
20260506112102 35 0 0.0 3.5 0.00 0.11 0.00 87 1022.6
20260506111556 35 0 0.9 3.5 0.00 0.11 0.00 88 1022.5
20260506111058 35 0 0.0 1.7 0.00 0.11 0.00 89 1022.6
20260506110559 35 188 0.0 1.7 0.00 0.11 0.00 87 1022.6
20260506110100 35 0 0.0 1.7 0.00 0.11 0.00 87 1022.6
20260506105559 36 0 0.0 1.7 0.00 0.11 0.00 87 1022.6
20260506105059 36 197 0.0 0.9 0.00 0.11 0.00 87 1022.4
20260506104635 36 0 0.0 0.9 0.00 0.11 0.00 87 1022.5
20260506104058 36 0 0.0 0.9 0.00 0.11 0.00 87 1022.4
20260506103559 36 171 0.0 1.7 0.00 0.11 0.00 87 1022.5
20260506103103 37 161 0.9 1.7 0.00 0.11 0.00 85 1022.4
20260506102559 37 0 0.0 0.9 0.00 0.11 0.00 86 1022.4
20260506102102 37 0 0.0 1.7 0.00 0.11 0.00 84 1022.4
20260506101557 37 0 0.9 1.7 0.00 0.11 0.00 84 1022.2
20260506101058 37 0 0.0 0.9 0.00 0.11 0.00 84 1022.2
20260506100558 37 0 0.0 0.0 0.00 0.11 0.00 83 1022.2
20260506100058 38 0 0.0 0.0 0.00 0.11 0.00 83 1022.3
20260506095601 38 0 0.0 0.9 0.00 0.12 0.00 83 1022.2
20260506095137 38 0 0.0 2.6 0.00 0.12 0.00 83 1022.2
20260506094556 38 0 0.0 2.6 0.00 0.12 0.00 83 1022.2
20260506094058 38 169 0.0 1.7 0.00 0.12 0.00 82 1022.2
20260506093558 39 0 0.0 0.9 0.00 0.12 0.00 82 1022.1
20260506093059 39 0 0.0 1.7 0.00 0.12 0.00 81 1022.1
20260506092600 39 226 0.0 1.7 0.00 0.12 0.00 82 1022.1
20260506092058 39 207 0.0 0.0 0.00 0.12 0.00 82 1022.1
20260506091556 39 0 0.0 0.0 0.00 0.12 0.00 82 1022.0
20260506091059 39 0 0.0 0.9 0.00 0.12 0.00 80 1022.0
20260506090558 40 0 0.0 0.9 0.00 0.12 0.00 80 1021.8
20260506090059 40 0 0.0 0.9 0.00 0.12 0.00 80 1021.8
20260506085558 40 0 0.0 1.7 0.00 0.12 0.00 80 1021.9
20260506085058 40 0 0.0 1.7 0.00 0.12 0.00 80 1021.8
20260506084559 40 161 0.0 2.6 0.00 0.12 0.00 82 1021.7
20260506084058 40 0 0.0 2.6 0.00 0.12 0.00 81 1021.7
20260506083559 40 151 0.0 2.6 0.00 0.12 0.00 82 1021.8
20260506083059 40 0 0.0 0.0 0.00 0.12 0.00 82 1021.9
20260506082558 40 0 0.0 0.0 0.00 0.12 0.00 81 1021.7
20260506082058 41 0 0.0 0.9 0.00 0.12 0.00 81 1021.7
20260506081600 41 0 0.0 1.7 0.00 0.12 0.00 81 1021.7
20260506081058 41 0 0.0 2.6 0.00 0.12 0.00 81 1021.8
20260506080558 41 0 0.0 2.6 0.00 0.12 0.00 82 1022.0
20260506080111 41 171 0.0 0.9 0.00 0.12 0.00 82 1022.2
20260506073100 41 0 0.0 0.0 0.00 0.12 0.00 80 1021.5
20260506072603 41 0 0.0 0.0 0.00 0.12 0.00 79 1021.3
20260506072059 41 0 0.0 0.9 0.00 0.12 0.00 79 1021.5
20260506071621 41 0 0.0 0.9 0.00 0.12 0.00 78 1021.5
20260506071058 42 0 0.0 0.9 0.00 0.12 0.00 77 1021.5
20260506070558 41 186 0.0 0.0 0.00 0.12 0.00 78 1021.5
20260506062058 42 0 0.0 0.0 0.00 0.12 0.12 73 1020.9
20260506061600 43 0 0.0 0.9 0.00 0.12 0.12 70 1020.8
20260506061059 43 0 0.0 0.9 0.00 0.12 0.12 68 1020.9
20260506060602 43 0 0.0 0.9 0.00 0.12 0.12 66 1020.9
20260506051058 45 243 0.0 3.5 0.00 0.12 0.12 63 1020.2
20260506050557 45 233 0.0 3.5 0.00 0.12 0.12 64 1020.2
20260506045056 45 198 0.0 1.7 0.00 0.12 0.12 66 1020.2
20260506044612 45 0 0.0 1.7 0.00 0.12 0.12 66 1020.2
20260506044056 45 0 0.0 3.5 0.00 0.12 0.12 66 1020.2
20260506043556 45 0 0.0 3.5 0.00 0.12 0.12 65 1020.0
20260506043059 45 222 0.0 0.9 0.00 0.12 0.12 65 1020.1
20260506042557 45 0 0.0 0.9 0.00 0.12 0.12 66 1019.9
20260506042056 45 0 0.0 1.7 0.00 0.12 0.12 65 1019.8
20260506041558 45 0 0.0 1.7 0.00 0.12 0.12 65 1019.7
20260506041056 45 0 0.0 1.7 0.00 0.12 0.12 65 1019.6
20260506040559 45 0 0.0 0.0 0.00 0.12 0.12 65 1019.6
20260506040059 45 0 0.0 1.7 0.00 0.12 0.12 65 1019.5
20260506035558 46 0 0.0 2.6 0.00 0.12 0.12 64 1019.6
20260506035057 45 150 0.0 2.6 0.00 0.12 0.12 65 1019.3
20260506034601 45 0 0.0 0.9 0.00 0.12 0.12 65 1019.3
20260506034057 46 0 0.0 0.9 0.00 0.12 0.12 64 1019.2
20260506033556 46 0 0.0 1.7 0.00 0.12 0.12 64 1019.0
20260506033059 46 236 0.0 1.7 0.00 0.12 0.12 64 1018.9
20260506032557 46 188 0.0 0.9 0.00 0.12 0.12 64 1018.8
20260506032057 46 0 0.0 0.9 0.00 0.12 0.12 64 1018.8
20260506031559 46 0 0.0 0.9 0.00 0.12 0.12 65 1018.6
20260506031100 46 213 0.0 1.7 0.00 0.12 0.12 64 1018.6
20260506030556 46 252 0.0 1.7 0.00 0.12 0.12 64 1018.6
20260506030056 46 0 0.0 2.6 0.00 0.12 0.12 63 1018.5
20260506025556 46 239 0.0 2.6 0.00 0.12 0.12 62 1018.4
20260506025056 47 0 0.0 1.7 0.00 0.12 0.12 62 1018.4
20260506024558 47 0 0.0 0.9 0.00 0.12 0.12 61 1018.3
20260506024058 48 0 0.0 0.9 0.00 0.12 0.12 60 1018.2
20260506023558 48 0 0.0 0.9 0.00 0.12 0.12 59 1018.1
20260506023102 49 0 0.0 0.9 0.00 0.12 0.12 58 1018.2
20260506022557 49 0 0.0 0.9 0.00 0.12 0.12 58 1018.0
20260506022057 50 0 0.0 0.9 0.00 0.12 0.12 57 1017.9
20260506021605 50 0 0.0 0.9 0.00 0.12 0.12 57 1017.9
20260506021057 50 0 0.0 1.7 0.00 0.12 0.12 58 1017.7
20260506020559 50 258 0.0 1.7 0.00 0.12 0.12 57 1017.7
20260506015557 51 194 0.0 1.7 0.00 0.15 0.12 56 1017.6
20260506015057 51 150 0.0 0.9 0.00 0.15 0.12 56 1017.6
20260506014600 52 0 0.0 1.7 0.00 0.15 0.12 55 1017.5
20260506014056 52 250 0.0 1.7 0.00 0.15 0.12 54 1017.5
20260506013556 52 0 0.0 1.7 0.00 0.15 0.12 54 1017.4
20260506013107 52 298 0.0 1.7 0.00 0.15 0.12 53 1017.4
20260506012556 53 0 0.0 1.7 0.00 0.15 0.12 53 1017.3
20260506012100 53 317 0.0 4.3 0.00 0.15 0.12 52 1017.3
20260506011601 53 0 0.0 4.3 0.00 0.15 0.12 51 1017.3
20260506011057 54 304 0.9 2.6 0.00 0.15 0.12 47 1017.3
20260506010557 56 5 0.9 4.3 0.00 0.15 0.12 47 1017.3
20260506010058 55 0 0.9 4.3 0.00 0.15 0.12 45 1017.0
20260506005556 56 0 0.9 5.2 0.00 0.15 0.12 47 1017.0
20260506005057 56 310 0.9 5.2 0.00 0.15 0.12 47 1016.9
20260506004604 55 0 0.0 3.5 0.00 0.15 0.12 49 1016.8
20260506004057 55 299 0.9 3.5 0.00 0.15 0.12 49 1016.8
20260506003601 55 317 0.9 3.5 0.00 0.15 0.12 49 1016.8
20260506003118 55 0 0.9 3.5 0.00 0.15 0.12 49 1016.8
20260506002558 54 0 0.9 2.6 0.00 0.15 0.12 53 1016.8
20260506002056 53 0 0.9 4.3 0.00 0.15 0.12 55 1016.8
20260506001611 53 285 0.0 4.3 0.00 0.15 0.12 55 1016.8
20260506001057 53 302 0.9 3.5 0.00 0.15 0.12 57 1016.6
20260506000557 52 295 0.9 3.5 0.00 0.15 0.12 57 1016.7
20260506000112 52 220 0.9 3.5 0.00 0.15 0.12 57 1016.8
20260505235557 52 198 0.0 6.1 0.00 0.15 0.12 56 1016.7
20260505235057 53 0 1.7 6.1 0.00 0.15 0.12 55 1016.8
20260505234613 53 215 0.9 5.2 0.00 0.15 0.12 55 1016.7
20260505234059 54 315 0.9 4.3 0.00 0.15 0.12 56 1016.7
20260505233557 54 0 0.9 3.5 0.00 0.15 0.12 57 1016.5
20260505233100 53 138 0.9 7.0 0.00 0.15 0.12 57 1016.5